星链-35521(STARLINK-35521)

导读

STARLINK-35521是美国太空探索技术公司(SpaceX)星链星座的一员,于2025年10月8日发射入轨。星链项目旨在构建全球低轨卫星互联网,为全球用户提供高速宽带接入服务。STARLINK-35521采用平板设计,搭载氪工质霍尔推进器,具备自主避撞能力,服役结束后会主动离轨再入大气层焚毁。它的入轨进一步扩充了星链星座规模,助力星链实现更完善的全球覆盖。

Basic Information
目录编号:
65916
目录名称:
STARLINK-35521
国际标识:
2025-225G
轨道中心:
EARTH
卫星名称:
星链-35521
卫星全名:
星链-35521(STARLINK-35521)
卫星状态:
在轨 (已飞行331 天)
发射日期:
2025-10-08 UTC
国别 :
美国 (US)
星等 :
--
Orbit Information
数据来源 国际轨道数据
星历时间: 2026-09-04T09:59:14+0800
10小时前
查看轨道信息
半长轴: 6840.861km
偏心率: 0.000131
轨道倾角: 53.160°
近地点辐角 44.533°
升交点赤经 54.744°
平近点角 315.578°
近地点: 461.827km
远地点: 463.621km
周期: 93.848分钟
每日圈数: 15.343931
Detailed Information
固有亮度:
5
最大亮度:
2.5
卫星平台:
Starlink V1.0
覆盖范围:
全球
运营商:
太空探索技术公司
运营商所在国:
美国
制造商(研发单位):
太空探索技术公司
制造商所在国:
美国
使用方式:
暂无
Satellite Introduction
Starlink 计划是 SpaceX 推出的全球卫星互联网项目,通过发射低轨道卫星,为全球尤其是偏远地区提供高速、低延迟的互联网服务。自 2019 年起,Starlink 已部署数千颗卫星,旨在缩小全球数字鸿沟,推动互联网普及。该项目还为军事、航空等行业提供通信支持,带来广泛经济效益。
2D Orbit Map
3D Orbit Map
Orbit Altitude Analysis Chart
Orbit Inclination Analysis Chart
Orbit Comprehensive Analysis Chart
View Comprehensive Chart
Conjunction Data List
Event ID Objects TCA Miss Dist (km) Collision Risk Probability Collision Risk Index (CRI) Action
CDM_260905-145705-250306-591621
2026-09-05T
14:57:11+0000
2.458 km
极远距离
1.393495E-6 低风险 0.38
CDM_260906-080605-286006-591621
2026-09-06T
08:06:20+0000
2.715 km
极远距离
1.262639E-6 低风险 0.37
CDM_260904-112305-180506-591621
2026-09-04T
11:23:14+0000
2.894 km
极远距离
1.254139E-6 低风险 0.37
CDM_260827-183606-591606-636021
2026-08-27T
18:36:06+0000
2.737 km
极远距离
9.671039E-7 极低风险 0.35
CDM_260906-024805-253906-591621
2026-09-06T
02:48:54+0000
2.377 km
极远距离
5.922071E-7 极低风险 0.3